Temperature
14 14 14 14 14 14 15 15 15 15 15 15 15 15 15 15 15 15 15 15 15 15 15 15 15 15 15 15 15 15 15 15 15 15 15 15 15 15 15 15 15 14 15
14 14 14 14 14 14 14 14 14 15 15 15 15 15 15 15 15 15 15 15 15 15 15 15 15 15 15 15 15 15 15 15 15 15 15 15 15 14 14 15 15 14 14
14 14 14 14 14 14 14 14 14 14 14 14 14 14 14 15 14 14 14 14 14 14 14 14 14 15 15 15 15 15 15 15 15 15 14 14 14 14 14 14 14 14 14
14 14 14 14 14 14 14 14 14 14 14 14 14 14 14 14 14 14 14 14 14 14 14 14 14 14 14 14 15 15 14 14 14 14 14 14 14 14 14 14 14 14 14
13 13 14 14 14 14 14 14 14 14 14 14 14 14 14 14 14 14 14 14 14 14 14 14 14 14 14 14 14 14 14 14 14 14 13 13 14 14 14 14 14 14 14
13 13 13 13 14 14 14 14 14 14 14 14 14 13 13 13 13 13 13 13 13 13 14 14 13 14 14 14 14 14 14 14 13 13 13 13 13 14 14 14 13 13 13
13 13 13 13 13 13 13 13 13 14 13 13 13 13 13 13 13 13 13 13 13 13 13 13 13 13 13 14 14 14 14 13 13 13 13 13 13 13 13 13 13 13 13
13 13 13 13 13 13 13 13 13 13 13 13 13 13 13 13 13 13 13 13 13 13 13 13 13 13 13 13 13 13 13 13 13 13 13 13 13 13 13 13 13 13 13
12 12 12 13 13 13 13 13 13 13 13 13 13 13 13 13 13 13 13 13 13 13 13 13 12 13 13 13 13 13 13 13 12 12 12 12 13 13 12 12 12 13 12
12 12 12 12 12 12 12 12 12 12 12 12 12 12 12 12 12 12 12 12 12 12 12 12 12 12 12 12 12 13 12 12 12 12 12 12 12 12 12 12 12 12 12
12 12 12 12 12 12 12 12 12 12 12 12 12 12 12 12 12 12 12 12 12 12 12 12 12 12 12 12 12 12 12 12 11 11 11 11 12 12 12 12 12 12 12
11 11 11 12 12 12 12 12 12 12 11 12 12 12 12 12 12 12 12 12 12 12 12 12 12 12 11 11 11 11 11 11 11 11 11 11 11 11 11 11 11 11 11
11 11 11 11 11 11 11 11 11 11 11 11 11 11 11 11 11 11 11 11 11 11 11 11 11 11 11 11 11 11 11 11 11 11 11 11 11 11 11 11 11 11 11
11 11 11 11 11 11 11 11 11 11 11 11 11 11 11 11 11 11 11 11 11 11 11 11 11 11 11 11 11 11 10 10 10 10 10 10 10 10 10 10 10 10 10
10 11 10 11 10 11 11 11 11 11 11 11 11 10 11 11 11 11 11 10 10 10 10 10 10 10 10 10 10 10 10 10 10 10 10 10 10 10 10 10 10 10 10
10 10 10 10 10 10 10 10 10 10 10 10 10 10 10 10 10 10 10 10 10 10 10 10 10 10 10 10 9 9 9 9 9 10 10 10 9 10 10 10 9 9 9
10 10 10 10 10 10 10 10 10 10 10 10 10 10 10 10 10 10 9 9 9 9 9 9 9 9 9 9 9 9 9 9 9 9 9 9 9 9 9 9 9 9 9
10 10 10 9 9 9 9 9 9 9 9 9 9 9 9 9 9 9 9 9 9 9 9 9 9 9 9 8 8 9 8 8 8 9 9 9 8 8 9 9 8 8 8
9 9 9 9 9 9 9 9 9 9 9 9 9 9 9 9 9 9 9 9 9 8 8 8 8 8 8 8 8 8 8 8 8 8 8 8 8 8 8 8 8 8 8
9 9 9 8 8 8 8 8 8 8 8 8 8 8 8 8 8 8 8 8 8 8 8 8 8 8 8 8 8 8 8 8 8 8 8 8 8 8 7 7 7 7 7
8 8 8 8 8 8 8 8 8 8 8 8 8 8 8 8 8 8 8 8 8 7 7 7 7 7 7 7 7 7 7 7 7 7 7 7 7 7 7 7 7 7 7
8 8 8 8 7 7 7 7 7 7 7 7 7 7 7 7 7 7 7 7 7 7 7 7 7 7 7 7 6 6 6 6 6 7 7 7 6 6 6 6 6 6 6
7 8 7 7 7 7 7 7 7 7 7 7 7 7 7 7 7 7 7 7 7 6 6 6 6 6 6 6 6 5 5 6 5 6 6 6 6 6 6 6 6 6 6
7 7 7 7 7 7 6 6 6 6 6 7 6 7 7 6 6 6 6 6 6 6 6 6 6 6 6 5 5 5 5 5 5 5 5 5 5 5 5 5 5 5 5
7 7 7 6 6 6 6 6 6 6 6 6 6 6 6 6 6 6 6 6 6 6 6 5 6 5 5 5 5 5 5 5 4 4 4 4 5 5 5 5 5 5 5
6 6 6 6 6 6 6 5 5 5 6 5 5 5 5 5 5 5 5 5 5 5 5 5 5 5 5 5 4 4 4 4 4 4 4 3 4 4 4 4 4 4 4
Wind_Speed
3 4 5 5 7 8 8 8 8 9 9 8 8 9 9 9 9 10 10 10 10 10 11 11 11 12 11 11 11 11 11 12 12 12 11 12 12 12 12 12 11 12 13
4 6 7 6 7 8 8 9 9 9 9 9 8 8 8 9 9 9 9 9 10 10 10 10 11 11 11 11 11 11 11 11 11 11 10 11 11 11 11 11 10 10 12
5 6 7 7 8 8 8 8 9 9 9 9 9 9 8 8 9 9 9 9 9 10 10 10 10 10 11 11 11 11 10 10 10 9 7 8 10 10 10 10 10 10 10
6 6 7 7 8 8 8 8 8 9 9 8 8 8 8 8 7 8 8 8 9 9 9 9 9 9 9 9 10 10 10 9 8 6 6 7 8 10 9 9 9 9 9
6 6 7 7 8 8 8 8 8 9 8 8 8 8 8 7 7 7 8 7 8 8 8 8 8 9 9 8 9 9 9 8 6 5 6 6 7 9 9 9 9 9 9
6 6 7 7 7 7 8 8 8 8 8 7 8 8 7 7 7 7 7 7 7 7 7 7 8 8 8 8 8 8 8 6 5 5 6 6 7 9 9 9 9 9 9
5 5 7 7 7 7 7 7 7 7 7 7 7 8 7 7 7 7 7 7 7 7 7 7 8 8 8 7 8 7 7 5 4 5 5 6 7 8 8 8 8 8 8
5 5 6 6 6 6 7 7 6 6 6 6 7 7 7 7 7 7 7 7 6 7 7 7 7 7 7 7 7 7 6 4 4 5 5 6 7 7 7 7 7 7 7
4 4 4 5 5 5 6 6 5 5 5 6 6 6 6 6 6 7 6 6 6 6 7 7 6 6 6 6 6 6 5 4 4 4 4 5 6 6 6 7 7 7 7
3 3 3 4 4 4 4 5 5 5 5 5 6 6 5 5 6 6 6 5 5 6 6 6 7 7 7 7 7 6 5 3 4 4 4 5 5 5 6 6 6 7 6
2 2 2 3 3 3 3 4 5 5 5 5 5 5 4 3 4 4 5 6 6 6 6 7 7 7 6 6 6 5 4 3 3 3 4 6 5 5 5 5 5 5 5
3 2 1 2 2 2 2 3 3 3 3 3 3 2 2 2 3 3 5 6 6 6 6 7 7 6 4 4 4 4 2 3 3 3 4 5 4 4 4 5 5 5 5
5 3 2 2 2 2 2 2 2 2 2 2 2 2 1 2 2 2 3 3 3 4 4 5 4 3 3 3 2 2 2 2 2 3 4 5 4 3 4 4 4 4 4
5 4 3 3 3 3 2 2 2 2 2 2 2 2 2 1 1 2 2 2 2 2 2 3 2 3 3 3 3 2 2 2 2 2 4 5 5 3 3 3 3 3 3
6 5 4 4 4 3 3 2 2 2 2 2 2 2 2 2 1 1 1 2 2 2 2 2 2 2 2 2 2 2 2 2 2 2 3 5 5 4 3 3 3 3 3
7 6 5 5 4 4 3 3 2 2 2 2 2 2 2 2 1 1 1 1 1 2 1 1 1 2 1 2 2 1 1 1 1 1 2 3 4 5 4 3 3 2 2
7 6 5 5 4 4 3 3 3 2 2 2 2 2 2 2 2 2 2 1 1 1 1 1 2 2 1 1 1 1 1 1 0 1 1 1 1 3 4 4 3 2 2
6 6 5 4 4 4 4 3 3 3 3 2 2 2 2 2 3 2 2 1 1 1 1 1 1 1 1 1 1 0 0 0 1 0 0 1 1 1 2 4 3 3 3
5 6 6 5 5 5 4 3 3 3 3 2 2 2 2 2 3 2 2 1 2 1 1 1 1 1 1 1 1 1 1 1 1 1 0 0 1 1 1 2 2 3 3
5 5 5 5 5 4 4 3 3 2 2 2 2 2 2 3 3 2 2 2 2 2 2 2 1 1 1 1 1 1 2 2 1 1 1 1 0 1 1 2 2 2 3
5 5 5 5 5 4 4 3 3 3 2 2 2 3 3 3 3 3 2 2 2 2 2 2 2 2 1 1 1 1 2 2 2 2 1 1 1 1 2 2 2 2 2
5 5 5 5 5 5 4 4 3 3 3 2 2 3 3 3 3 3 3 3 3 2 3 3 2 2 1 1 2 2 2 2 2 2 2 2 2 2 2 3 3 3 3
5 6 5 5 5 5 5 3 3 2 2 2 3 2 3 3 4 4 4 4 3 3 3 4 4 4 2 2 2 2 2 2 2 2 3 3 3 3 3 3 4 4 4
6 6 6 6 5 5 5 5 5 5 4 4 3 3 3 3 4 4 4 4 4 3 4 4 4 4 4 3 2 2 3 2 2 2 2 3 4 4 4 4 4 4 4
5 5 5 6 5 5 5 6 6 6 5 3 3 4 3 3 4 4 5 4 4 3 4 4 4 4 4 4 3 3 3 3 4 3 4 3 3 3 4 4 4 4 4
4 5 5 6 5 5 6 6 7 7 6 5 5 4 4 3 3 4 5 5 4 4 4 4 4 5 5 5 5 4 4 3 3 4 5 5 5 4 4 4 4 4 4
Wind_Direction
140 134 119 117 104 95 94 95 97 96 96 99 98 97 97 96 95 92 87 85 83 83 83 83 81 78 79 84 87 85 83 84 85 81 80 81 82 82 83 82 83 84 82
138 139 128 120 112 105 99 95 98 97 94 93 97 97 100 101 98 94 89 87 85 85 85 85 82 79 77 79 83 84 82 81 80 82 85 85 82 82 82 77 74 82 82
132 137 137 121 117 113 107 100 102 100 97 95 93 88 92 102 101 96 92 89 87 85 85 86 84 81 79 77 78 80 82 84 80 82 90 89 88 85 83 79 81 87 86
129 134 133 120 116 112 107 103 103 103 100 99 96 93 89 90 95 96 94 91 89 86 85 86 85 83 83 81 80 80 79 82 80 86 90 86 87 84 85 80 83 87 87
127 128 125 120 115 113 110 106 102 100 100 99 97 94 91 86 84 91 92 92 92 90 89 87 88 87 87 86 84 82 79 79 81 86 83 83 84 86 84 82 82 85 87
123 119 118 114 113 112 111 106 101 98 96 99 97 96 95 92 86 84 90 93 93 93 94 92 90 90 90 89 86 83 79 79 89 85 82 79 83 88 86 86 86 85 86
117 110 112 108 109 107 108 110 107 102 99 100 99 95 94 94 91 88 85 91 94 94 94 95 93 90 90 90 87 84 80 75 80 80 77 77 79 85 87 87 86 85 85
113 111 112 108 102 101 101 106 110 109 105 106 102 96 93 92 92 91 86 88 94 96 96 97 96 93 92 92 88 83 78 74 82 76 75 80 79 82 83 82 82 81 80
111 109 106 116 111 103 101 101 102 110 110 105 105 101 95 94 95 92 91 89 97 100 99 98 98 98 96 93 89 84 77 64 81 77 68 74 75 80 82 80 79 78 75
113 114 110 112 113 113 114 106 99 103 106 102 99 96 95 97 96 90 92 90 98 109 108 105 103 96 92 87 82 83 82 83 76 72 64 69 71 88 88 84 79 76 76
143 138 126 122 118 113 116 113 112 107 103 106 104 99 105 116 109 97 85 80 88 106 110 106 99 95 95 93 85 79 87 79 76 63 61 63 68 84 85 78 75 78 77
191 184 171 155 145 135 123 125 127 129 125 125 125 124 125 115 104 98 91 87 82 91 107 101 96 100 99 100 95 94 80 63 66 61 61 65 65 75 80 73 70 72 73
205 197 196 183 169 158 145 142 136 132 132 133 135 134 131 124 115 115 109 111 104 97 114 109 110 99 84 78 84 85 62 54 47 51 55 52 50 64 70 71 73 80 71
213 207 204 196 183 175 167 160 152 142 140 134 133 134 131 113 116 121 116 119 119 102 103 117 112 103 92 79 75 72 63 57 49 45 49 45 39 47 59 67 76 79 70
219 215 212 203 192 180 170 165 163 160 159 151 151 158 151 131 128 119 118 116 121 120 113 124 130 116 106 90 74 67 59 47 43 41 52 47 35 34 43 43 49 65 69
222 217 215 207 197 186 182 179 172 169 165 166 165 175 170 144 134 141 143 131 142 144 124 126 138 124 114 102 86 68 50 34 27 31 43 52 44 34 34 38 42 41 38
217 212 207 206 196 191 189 186 176 170 171 168 165 177 171 162 166 159 147 146 123 132 143 127 141 132 126 125 118 93 64 38 2 359 18 22 32 41 34 27 25 18 9
210 205 202 199 195 193 190 186 178 177 174 169 169 175 181 180 178 167 162 168 149 137 138 143 175 158 165 182 194 216 232 249 244 295 357 10 23 23 30 23 5 359 353
205 197 196 194 192 191 189 183 176 177 178 176 175 181 189 190 186 178 178 178 176 165 162 173 207 206 195 205 226 250 255 255 253 255 268 338 11 6 353 14 5 357 345
202 194 191 190 187 183 183 181 174 176 183 184 187 194 201 200 197 188 180 189 192 190 189 190 196 215 223 221 224 239 245 248 240 246 249 246 292 306 323 334 332 341 342
197 192 190 190 191 186 188 189 193 199 203 203 200 207 209 209 205 199 190 195 202 207 211 205 206 199 226 247 250 248 236 224 226 235 241 247 251 271 303 319 315 312 313
200 197 195 196 197 197 201 203 208 203 212 211 207 210 215 218 214 206 201 201 205 209 213 212 210 213 217 232 267 261 250 220 213 240 241 250 261 278 289 295 295 293 295
208 205 202 203 204 204 201 193 178 186 204 211 214 218 220 221 217 215 213 210 204 206 214 215 211 216 218 218 245 255 254 255 287 227 242 250 263 284 286 288 281 278 277
214 212 210 205 205 205 202 200 193 203 212 226 224 223 222 223 221 216 214 214 211 212 214 213 216 224 216 219 223 253 276 287 261 263 239 246 268 276 280 282 275 273 273
217 215 215 210 207 207 207 207 206 212 213 215 219 222 223 222 222 219 215 214 214 218 219 216 215 222 220 221 225 229 240 254 257 256 265 266 272 272 280 284 274 269 269
218 214 214 210 211 211 211 213 213 216 214 209 215 220 223 226 224 222 219 219 218 220 221 220 218 223 226 223 225 228 231 237 244 253 260 267 276 284 286 278 268 268 267
Height
1535 1535 1535 1536 1536 1537 1537 1537 1537 1538 1538 1538 1538 1538 1538 1538 1538 1538 1538 1537 1537 1537 1537 1537 1537 1537 1537 1537 1537 1537 1537 1537 1537 1537 1537 1536 1537 1537 1537 1536 1536 1536 1536
1534 1535 1535 1536 1537 1537 1537 1537 1538 1538 1538 1538 1538 1539 1539 1538 1538 1538 1538 1538 1538 1538 1538 1538 1538 1538 1537 1537 1537 1538 1538 1538 1538 1538 1538 1538 1538 1538 1538 1538 1537 1537 1537
1534 1535 1536 1536 1537 1537 1537 1538 1538 1538 1538 1538 1538 1539 1539 1538 1538 1538 1538 1538 1538 1538 1538 1538 1538 1538 1538 1538 1538 1538 1538 1538 1538 1539 1539 1539 1539 1539 1539 1539 1538 1538 1538
1534 1535 1536 1536 1537 1537 1538 1538 1538 1538 1538 1538 1538 1539 1539 1538 1538 1538 1538 1538 1538 1538 1538 1538 1538 1538 1538 1538 1538 1539 1539 1539 1539 1540 1540 1540 1540 1540 1539 1539 1539 1539 1539
1534 1535 1536 1536 1537 1537 1538 1538 1538 1538 1538 1538 1538 1538 1539 1538 1538 1538 1538 1538 1538 1538 1538 1538 1538 1538 1538 1538 1538 1539 1539 1539 1540 1540 1541 1541 1540 1540 1540 1540 1540 1540 1539
1535 1535 1536 1536 1537 1537 1538 1538 1538 1538 1538 1538 1538 1538 1538 1539 1539 1538 1538 1538 1538 1538 1538 1538 1538 1538 1538 1538 1538 1539 1539 1540 1540 1541 1541 1541 1541 1541 1540 1540 1540 1540 1540
1534 1535 1535 1536 1536 1537 1537 1537 1537 1538 1538 1538 1538 1538 1538 1538 1538 1538 1538 1538 1538 1538 1538 1538 1538 1538 1538 1538 1538 1538 1539 1540 1540 1541 1541 1541 1541 1541 1540 1540 1540 1540 1540
1534 1534 1535 1536 1536 1536 1537 1537 1537 1537 1537 1537 1537 1537 1538 1538 1538 1538 1538 1538 1537 1537 1537 1537 1537 1538 1538 1538 1538 1538 1539 1539 1540 1540 1541 1541 1541 1540 1540 1540 1540 1540 1540
1533 1534 1534 1535 1535 1536 1536 1536 1536 1536 1537 1537 1537 1537 1537 1537 1537 1537 1537 1537 1537 1537 1537 1537 1537 1537 1538 1538 1538 1538 1539 1539 1540 1540 1540 1540 1540 1540 1540 1540 1540 1539 1539
1533 1533 1534 1534 1534 1535 1535 1535 1536 1536 1536 1536 1536 1536 1536 1537 1536 1536 1536 1536 1536 1536 1536 1536 1537 1537 1537 1537 1537 1538 1538 1539 1539 1539 1540 1540 1540 1540 1539 1539 1539 1539 1539
1531 1532 1532 1533 1533 1534 1534 1534 1534 1535 1535 1535 1535 1535 1535 1536 1536 1535 1535 1535 1535 1535 1535 1535 1535 1536 1536 1537 1537 1537 1537 1538 1538 1539 1539 1539 1539 1539 1538 1538 1538 1538 1538
1529 1530 1531 1531 1531 1532 1532 1533 1533 1533 1534 1534 1534 1534 1534 1535 1535 1534 1534 1534 1534 1534 1534 1534 1534 1535 1535 1536 1536 1536 1537 1537 1537 1537 1537 1537 1538 1537 1537 1537 1537 1537 1537
1528 1528 1529 1529 1530 1530 1531 1531 1531 1532 1532 1532 1532 1533 1533 1533 1533 1533 1533 1534 1533 1533 1533 1533 1534 1534 1534 1534 1534 1535 1535 1535 1536 1536 1536 1536 1536 1536 1536 1536 1536 1536 1536
1526 1526 1527 1527 1527 1528 1529 1529 1530 1530 1530 1531 1531 1531 1531 1531 1532 1532 1532 1532 1532 1532 1532 1532 1532 1533 1533 1533 1533 1533 1534 1534 1534 1534 1534 1534 1534 1534 1534 1534 1534 1534 1534
1523 1524 1524 1525 1525 1526 1526 1527 1528 1528 1528 1529 1529 1529 1530 1530 1530 1530 1531 1531 1531 1531 1531 1531 1531 1531 1532 1532 1532 1532 1532 1532 1533 1533 1533 1532 1533 1532 1533 1533 1533 1533 1533
1520 1521 1521 1522 1523 1523 1524 1525 1525 1526 1526 1527 1527 1527 1528 1528 1528 1529 1529 1529 1529 1529 1529 1529 1530 1530 1530 1530 1531 1531 1531 1531 1531 1531 1531 1531 1531 1531 1531 1531 1531 1531 1531
1517 1518 1518 1519 1520 1521 1521 1522 1523 1523 1524 1524 1525 1525 1526 1526 1527 1527 1527 1527 1527 1528 1528 1528 1528 1528 1528 1529 1529 1530 1530 1530 1530 1530 1529 1529 1529 1529 1529 1529 1529 1529 1529
1514 1514 1515 1516 1517 1518 1519 1519 1520 1521 1521 1522 1523 1523 1524 1524 1525 1525 1525 1525 1526 1526 1526 1526 1526 1526 1527 1527 1527 1528 1528 1528 1528 1528 1527 1527 1527 1527 1527 1527 1527 1526 1526
1510 1511 1512 1513 1514 1515 1516 1516 1517 1518 1519 1520 1520 1521 1521 1522 1522 1522 1523 1523 1523 1524 1524 1525 1525 1525 1525 1525 1525 1525 1525 1525 1525 1525 1525 1525 1525 1525 1525 1524 1524 1524 1524
1507 1508 1509 1510 1511 1512 1513 1514 1514 1515 1516 1517 1517 1518 1519 1519 1520 1520 1520 1521 1521 1521 1522 1522 1523 1523 1523 1523 1523 1523 1522 1522 1523 1523 1523 1523 1523 1522 1522 1522 1521 1521 1521
1504 1504 1506 1507 1508 1509 1509 1510 1511 1512 1513 1514 1515 1515 1516 1516 1517 1517 1518 1518 1519 1519 1519 1520 1520 1521 1520 1521 1521 1520 1520 1520 1520 1520 1520 1520 1520 1520 1519 1519 1519 1518 1518
1500 1501 1502 1504 1505 1505 1506 1507 1508 1509 1509 1510 1511 1512 1512 1513 1514 1514 1515 1515 1516 1516 1517 1517 1517 1518 1518 1518 1519 1518 1519 1519 1517 1517 1517 1517 1517 1517 1516 1516 1516 1515 1515
1497 1498 1499 1500 1501 1502 1503 1504 1505 1506 1506 1507 1508 1508 1509 1509 1510 1511 1511 1512 1513 1513 1513 1514 1514 1515 1515 1515 1516 1517 1517 1516 1516 1514 1514 1514 1514 1514 1513 1513 1513 1512 1511
1494 1495 1496 1497 1498 1499 1500 1500 1501 1501 1502 1503 1504 1504 1505 1506 1506 1507 1508 1508 1509 1510 1510 1511 1511 1512 1512 1512 1513 1513 1514 1513 1514 1512 1512 1511 1511 1511 1510 1510 1509 1509 1508
1490 1491 1492 1493 1494 1495 1496 1497 1497 1498 1499 1500 1500 1501 1501 1502 1503 1503 1504 1505 1505 1506 1506 1507 1507 1508 1508 1509 1509 1509 1509 1510 1510 1509 1508 1508 1508 1507 1507 1506 1506 1505 1504
1487 1488 1488 1489 1490 1491 1492 1493 1494 1494 1495 1495 1496 1497 1498 1498 1499 1499 1500 1501 1501 1502 1503 1503 1504 1504 1505 1505 1505 1505 1506 1506 1506 1506 1505 1504 1504 1503 1503 1503 1502 1501 1500